GLO1526 SBSP-SBIL

Flight info

Callsign GLO1526
Flight time 1h 39m
Altitude 39000
Route VUMEV UZ14 DALOX
Aircraft B737/M-SDFGIKRWY/LB1

Departure

Time 2026-04-19 22:48
Airport Congonhas–Deputado Freitas Nobre Airport (SBSP)

Arrival

Time 2026-04-20 00:27
Airport Bahia - Jorge Amado Airport (SBIL)
Time Latitude Longitude Altitude Speed Heading
2026-04-19 22:24 -23.62962 -46.65842 2599 ft 0 kts 327°
2026-04-19 22:39 -23.62974 -46.65834 2599 ft 2 kts 327°
2026-04-19 22:39 -23.62988 -46.65824 2599 ft 2 kts 327°
2026-04-19 22:39 -23.63002 -46.65821 2599 ft 2 kts 55°
2026-04-19 22:40 -23.63011 -46.65836 2599 ft 2 kts 57°
2026-04-19 22:40 -23.63013 -46.65839 2599 ft 0 kts 58°
2026-04-19 22:41 -23.63012 -46.65838 2599 ft 1 kts 58°
2026-04-19 22:41 -23.63003 -46.65823 2599 ft 4 kts 58°
2026-04-19 22:42 -23.62982 -46.65787 2599 ft 7 kts 57°
2026-04-19 22:42 -23.62948 -46.65729 2600 ft 12 kts 57°
2026-04-19 22:42 -23.62913 -46.65671 2600 ft 6 kts 58°
2026-04-19 22:42 -23.62891 -46.65632 2601 ft 6 kts 58°
2026-04-19 22:43 -23.62852 -46.65626 2602 ft 7 kts 333°
2026-04-19 22:43 -23.62804 -46.65659 2602 ft 9 kts 327°
2026-04-19 22:43 -23.62752 -46.65695 2601 ft 9 kts 328°
2026-04-19 22:43 -23.62700 -46.65731 2601 ft 9 kts 327°
2026-04-19 22:44 -23.62649 -46.65767 2601 ft 9 kts 328°
2026-04-19 22:44 -23.62599 -46.65800 2601 ft 9 kts 327°
2026-04-19 22:44 -23.62532 -46.65847 2601 ft 15 kts 328°
2026-04-19 22:44 -23.62432 -46.65916 2600 ft 18 kts 327°
2026-04-19 22:45 -23.62331 -46.65986 2599 ft 17 kts 327°
2026-04-19 22:45 -23.62232 -46.66049 2599 ft 16 kts 334°
2026-04-19 22:45 -23.62140 -46.66111 2594 ft 10 kts 327°
2026-04-19 22:45 -23.62121 -46.66124 2597 ft 0 kts 327°
2026-04-19 22:46 -23.62120 -46.66125 2597 ft 1 kts 327°
2026-04-19 22:46 -23.62077 -46.66138 2596 ft 12 kts 359°
2026-04-19 22:46 -23.62051 -46.66077 2595 ft 12 kts 129°
2026-04-19 22:47 -23.62077 -46.66056 2595 ft 12 kts 147°
2026-04-19 22:47 -23.62380 -46.65846 2601 ft 90 kts 147°
2026-04-19 22:47 -23.63083 -46.65358 2623 ft 150 kts 147°
2026-04-19 22:47 -23.64029 -46.64703 3148 ft 165 kts 148°
2026-04-19 22:48 -23.64983 -46.64034 4070 ft 166 kts 147°
2026-04-19 22:48 -23.65977 -46.63182 4445 ft 202 kts 128°
2026-04-19 22:48 -23.66687 -46.61731 4713 ft 233 kts 117°
2026-04-19 22:48 -23.67416 -46.60058 5104 ft 257 kts 117°
2026-04-19 22:49 -23.68210 -46.58222 5637 ft 275 kts 117°
2026-04-19 22:49 -23.69041 -46.56300 6598 ft 282 kts 116°
2026-04-19 22:49 -23.69872 -46.54377 7575 ft 287 kts 117°
2026-04-19 22:49 -23.70733 -46.52390 8547 ft 292 kts 117°
2026-04-19 22:50 -23.71598 -46.50358 9482 ft 298 kts 113°
2026-04-19 22:50 -23.71950 -46.48129 10373 ft 308 kts 90°
2026-04-19 22:50 -23.71724 -46.45723 10876 ft 331 kts 83°
2026-04-19 22:50 -23.71347 -46.43192 11539 ft 343 kts 82°
2026-04-19 22:51 -23.70935 -46.40610 12411 ft 348 kts 82°
2026-04-19 22:51 -23.70121 -46.35347 14164 ft 356 kts 83°
2026-04-19 22:51 -23.69733 -46.32694 14977 ft 362 kts 83°
2026-04-19 22:52 -23.69339 -46.29965 15806 ft 367 kts 83°
2026-04-19 22:52 -23.68752 -46.27239 16583 ft 376 kts 67°
2026-04-19 22:52 -23.67224 -46.24919 17430 ft 381 kts 42°
2026-04-19 22:52 -23.65029 -46.23301 18247 ft 384 kts 23°
2026-04-19 22:53 -23.62513 -46.22306 18994 ft 388 kts 16°
2026-04-19 22:53 -23.59906 -46.21435 19602 ft 396 kts 15°
2026-04-19 22:53 -23.57233 -46.20588 20256 ft 403 kts 14°
2026-04-19 22:53 -23.54521 -46.19741 20968 ft 408 kts 15°
2026-04-19 22:54 -23.51782 -46.18871 21628 ft 413 kts 15°
2026-04-19 22:54 -23.49045 -46.17981 22219 ft 419 kts 16°
2026-04-19 22:54 -23.46231 -46.17050 22815 ft 425 kts 16°
2026-04-19 22:54 -23.43384 -46.16097 23405 ft 430 kts 17°
2026-04-19 22:55 -23.40504 -46.15126 23969 ft 436 kts 17°
2026-04-19 22:55 -23.37587 -46.14140 24528 ft 441 kts 17°
2026-04-19 22:55 -23.34653 -46.13149 25202 ft 442 kts 16°
2026-04-19 22:55 -23.31712 -46.12155 25862 ft 444 kts 16°
2026-04-19 22:56 -23.28754 -46.11157 26476 ft 446 kts 16°
2026-04-19 22:56 -23.25823 -46.10170 27052 ft 448 kts 16°
2026-04-19 22:56 -23.22837 -46.09164 27614 ft 451 kts 15°
2026-04-19 22:56 -23.19834 -46.08153 28146 ft 454 kts 15°
2026-04-19 22:57 -23.16813 -46.07137 28703 ft 455 kts 15°
2026-04-19 22:57 -23.13786 -46.06119 29247 ft 457 kts 15°
2026-04-19 22:57 -23.10741 -46.05096 29757 ft 459 kts 15°
2026-04-19 22:57 -23.07683 -46.04068 30216 ft 462 kts 15°
2026-04-19 22:58 -23.05646 -46.03384 30523 ft 463 kts 14°
2026-04-19 22:58 -23.03111 -46.02534 30865 ft 466 kts 14°
2026-04-19 22:58 -22.99999 -46.01489 31239 ft 470 kts 14°
2026-04-19 22:58 -22.96906 -46.00451 31591 ft 474 kts 14°
2026-04-19 22:59 -22.93745 -45.99391 31969 ft 476 kts 14°
2026-04-19 22:59 -22.90575 -45.98295 32307 ft 481 kts 17°
2026-04-19 22:59 -22.87500 -45.96822 32634 ft 487 kts 26°
2026-04-19 22:59 -22.84619 -45.94855 32965 ft 491 kts 32°
2026-04-19 23:00 -22.81816 -45.92729 33326 ft 493 kts 33°
2026-04-19 23:00 -22.79027 -45.90564 33756 ft 492 kts 33°
2026-04-19 23:00 -22.76249 -45.88406 34206 ft 491 kts 33°
2026-04-19 23:00 -22.73506 -45.86293 34602 ft 490 kts 33°
2026-04-19 23:01 -22.70724 -45.84174 34996 ft 489 kts 33°
2026-04-19 23:01 -22.67934 -45.82065 35341 ft 489 kts 33°
2026-04-19 23:01 -22.65136 -45.79962 35666 ft 490 kts 33°
2026-04-19 23:01 -22.62338 -45.77863 36026 ft 489 kts 33°
2026-04-19 23:02 -22.59546 -45.75770 36395 ft 488 kts 33°
2026-04-19 23:02 -22.56756 -45.73680 36689 ft 488 kts 33°
2026-04-19 23:02 -22.53961 -45.71588 36997 ft 488 kts 32°
2026-04-19 23:02 -22.51224 -45.69538 37464 ft 483 kts 33°
2026-04-19 23:03 -22.48479 -45.67481 37901 ft 479 kts 33°
2026-04-19 23:03 -22.45737 -45.65427 38128 ft 480 kts 33°
2026-04-19 23:03 -22.42984 -45.63368 38271 ft 483 kts 33°
2026-04-19 23:03 -22.40218 -45.61300 38478 ft 484 kts 33°
2026-04-19 23:04 -22.37451 -45.59232 38759 ft 483 kts 33°
2026-04-19 23:04 -22.34692 -45.57170 39024 ft 483 kts 33°
2026-04-19 23:04 -22.29160 -45.53040 39035 ft 488 kts 33°
2026-04-19 23:05 -22.23590 -45.48883 39013 ft 483 kts 33°
2026-04-19 23:05 -22.18079 -45.44776 39013 ft 480 kts 33°
2026-04-19 23:06 -22.12592 -45.40689 39015 ft 479 kts 33°
2026-04-19 23:06 -22.07107 -45.36610 39021 ft 479 kts 33°
2026-04-19 23:07 -22.01716 -45.32494 39018 ft 478 kts 36°
2026-04-19 23:07 -21.96480 -45.28069 39006 ft 478 kts 37°
2026-04-19 23:08 -21.91280 -45.23595 39028 ft 479 kts 37°
2026-04-19 23:08 -21.86037 -45.19136 39037 ft 481 kts 36°
2026-04-19 23:09 -21.80793 -45.14712 39041 ft 483 kts 36°
2026-04-19 23:09 -21.75495 -45.10256 39041 ft 484 kts 36°
2026-04-19 23:10 -21.70185 -45.05790 39037 ft 485 kts 36°
2026-04-19 23:10 -21.64865 -45.01320 39045 ft 485 kts 36°
2026-04-19 23:11 -21.59545 -44.96853 39044 ft 485 kts 36°
2026-04-19 23:11 -21.54260 -44.92415 39047 ft 485 kts 36°
2026-04-19 23:12 -21.48942 -44.87961 39061 ft 484 kts 36°
2026-04-19 23:12 -21.43630 -44.83515 39061 ft 484 kts 36°
2026-04-19 23:13 -21.38335 -44.79085 39062 ft 482 kts 36°
2026-04-19 23:13 -21.33082 -44.74700 39063 ft 481 kts 36°
2026-04-19 23:14 -21.27800 -44.70300 39078 ft 480 kts 36°
2026-04-19 23:14 -21.22525 -44.65907 39040 ft 480 kts 36°
2026-04-19 23:15 -21.17251 -44.61512 39039 ft 480 kts 36°
2026-04-19 23:15 -21.11976 -44.57115 39035 ft 480 kts 36°
2026-04-19 23:16 -21.06738 -44.52753 39033 ft 480 kts 36°
2026-04-19 23:16 -21.01469 -44.48368 39033 ft 480 kts 36°
2026-04-19 23:17 -20.96195 -44.43989 39038 ft 480 kts 36°
2026-04-19 23:17 -20.90913 -44.39614 39040 ft 480 kts 36°
2026-04-19 23:18 -20.85630 -44.35246 39045 ft 480 kts 36°
2026-04-19 23:18 -20.80376 -44.30903 39047 ft 481 kts 36°
2026-04-19 23:19 -20.75086 -44.26532 39044 ft 481 kts 36°
2026-04-19 23:19 -20.69793 -44.22161 39053 ft 481 kts 36°
2026-04-19 23:20 -20.64492 -44.17790 39047 ft 482 kts 36°
2026-04-19 23:20 -20.59243 -44.13413 39047 ft 482 kts 37°
2026-04-19 23:21 -20.53971 -44.08975 39045 ft 482 kts 37°
2026-04-19 23:21 -20.48687 -44.04563 39048 ft 482 kts 36°
2026-04-19 23:22 -20.43365 -44.00212 39043 ft 483 kts 36°
2026-04-19 23:22 -20.38062 -43.95896 39051 ft 483 kts 36°
2026-04-19 23:23 -20.32721 -43.91539 39044 ft 483 kts 36°
2026-04-19 23:23 -20.27384 -43.87183 39040 ft 483 kts 36°
2026-04-19 23:24 -20.22048 -43.82830 39053 ft 483 kts 36°
2026-04-19 23:24 -20.16744 -43.78509 39040 ft 483 kts 36°
2026-04-19 23:25 -20.11412 -43.74168 39044 ft 482 kts 36°
2026-04-19 23:25 -20.06175 -43.69906 39051 ft 482 kts 36°
2026-04-19 23:26 -20.00842 -43.65572 39033 ft 482 kts 36°
2026-04-19 23:26 -19.95525 -43.61253 39043 ft 481 kts 36°
2026-04-19 23:27 -19.90241 -43.56966 39050 ft 481 kts 35°
2026-04-19 23:27 -19.84925 -43.52648 39041 ft 481 kts 36°
2026-04-19 23:28 -19.79615 -43.48328 39052 ft 480 kts 35°
2026-04-19 23:28 -19.74306 -43.44014 39036 ft 480 kts 35°
2026-04-19 23:29 -19.68999 -43.39704 39038 ft 480 kts 35°
2026-04-19 23:29 -19.63728 -43.35430 39034 ft 480 kts 35°
2026-04-19 23:30 -19.58415 -43.31121 39032 ft 481 kts 35°
2026-04-19 23:30 -19.53098 -43.26812 39021 ft 481 kts 35°
2026-04-19 23:31 -19.47781 -43.22506 39011 ft 481 kts 35°
2026-04-19 23:31 -19.42503 -43.18234 39013 ft 481 kts 35°
2026-04-19 23:32 -19.37184 -43.13935 39002 ft 481 kts 35°
2026-04-19 23:32 -19.31869 -43.09642 39003 ft 481 kts 35°
2026-04-19 23:33 -19.26553 -43.05350 38999 ft 481 kts 35°
2026-04-19 23:33 -19.21269 -43.01088 38988 ft 481 kts 34°
2026-04-19 23:34 -19.15946 -42.96796 38991 ft 481 kts 34°
2026-04-19 23:34 -19.10623 -42.92510 38985 ft 481 kts 34°
2026-04-19 23:35 -19.05303 -42.88228 38984 ft 481 kts 34°
2026-04-19 23:35 -18.99977 -42.83948 38979 ft 481 kts 34°
2026-04-19 23:36 -18.94691 -42.79700 38980 ft 480 kts 34°
2026-04-19 23:36 -18.89367 -42.75432 38979 ft 480 kts 34°
2026-04-19 23:37 -18.84042 -42.71177 38980 ft 480 kts 34°
2026-04-19 23:37 -18.78721 -42.66924 38985 ft 480 kts 34°
2026-04-19 23:38 -18.73426 -42.62693 38980 ft 480 kts 34°
2026-04-19 23:38 -18.68099 -42.58442 38979 ft 480 kts 34°
2026-04-19 23:39 -18.62774 -42.54198 38990 ft 480 kts 34°
2026-04-19 23:39 -18.57448 -42.49955 38985 ft 480 kts 34°
2026-04-19 23:40 -18.52115 -42.45708 38996 ft 481 kts 33°
2026-04-19 23:40 -18.46810 -42.41487 38976 ft 481 kts 33°
2026-04-19 23:41 -18.41476 -42.37243 38981 ft 481 kts 33°
2026-04-19 23:41 -18.36136 -42.33004 38977 ft 481 kts 33°
2026-04-19 23:42 -18.30798 -42.28766 38974 ft 480 kts 33°
2026-04-19 23:42 -18.25501 -42.24560 38978 ft 481 kts 33°
2026-04-19 23:43 -18.20157 -42.20320 38975 ft 481 kts 33°
2026-04-19 23:43 -18.14818 -42.16085 38972 ft 481 kts 33°
2026-04-19 23:44 -18.09473 -42.11845 38987 ft 483 kts 33°
2026-04-19 23:44 -18.04085 -42.07577 38994 ft 494 kts 33°
2026-04-19 23:45 -17.98541 -42.03192 39001 ft 503 kts 33°
2026-04-19 23:45 -17.92938 -41.98760 38987 ft 505 kts 33°
2026-04-19 23:46 -17.87323 -41.94318 38976 ft 506 kts 33°
2026-04-19 23:46 -17.81740 -41.89910 38979 ft 505 kts 33°
2026-04-19 23:47 -17.76131 -41.85483 38995 ft 504 kts 33°
2026-04-19 23:47 -17.70522 -41.81062 38979 ft 503 kts 33°
2026-04-19 23:48 -17.64935 -41.76660 38989 ft 502 kts 33°
2026-04-19 23:48 -17.59357 -41.72269 38987 ft 501 kts 33°
2026-04-19 23:49 -17.53831 -41.67924 38993 ft 500 kts 33°
2026-04-19 23:49 -17.48273 -41.63555 38987 ft 499 kts 33°
2026-04-19 23:50 -17.42724 -41.59198 38992 ft 498 kts 33°
2026-04-19 23:50 -17.37178 -41.54846 38997 ft 498 kts 33°
2026-04-19 23:51 -17.31670 -41.50532 38994 ft 498 kts 33°
2026-04-19 23:51 -17.26118 -41.46189 38991 ft 498 kts 33°
2026-04-19 23:52 -17.20564 -41.41846 38989 ft 499 kts 32°
2026-04-19 23:52 -17.15008 -41.37502 38999 ft 498 kts 33°
2026-04-19 23:53 -17.09487 -41.33190 38985 ft 499 kts 32°
2026-04-19 23:53 -17.03931 -41.28855 38984 ft 498 kts 32°
2026-04-19 23:54 -16.98379 -41.24527 38982 ft 499 kts 32°
2026-04-19 23:54 -16.92817 -41.20193 38976 ft 498 kts 32°
2026-04-19 23:55 -16.87305 -41.15901 38985 ft 498 kts 32°
2026-04-19 23:55 -16.81747 -41.11577 38981 ft 498 kts 32°
2026-04-19 23:56 -16.76196 -41.07261 38982 ft 497 kts 32°
2026-04-19 23:56 -16.70638 -41.02944 38988 ft 498 kts 32°
2026-04-19 23:57 -16.65113 -40.98652 38994 ft 499 kts 32°
2026-04-19 23:57 -16.59553 -40.94339 38993 ft 498 kts 32°
2026-04-19 23:58 -16.53982 -40.90022 38995 ft 499 kts 32°
2026-04-19 23:58 -16.48418 -40.85713 38986 ft 498 kts 32°
2026-04-19 23:59 -16.42852 -40.81404 38997 ft 498 kts 32°
2026-04-19 23:59 -16.37325 -40.77128 38974 ft 498 kts 32°
2026-04-20 00:00 -16.31750 -40.72818 38852 ft 501 kts 32°
2026-04-20 00:00 -16.28935 -40.70646 38212 ft 504 kts 32°
2026-04-20 00:00 -16.26132 -40.68480 37652 ft 500 kts 32°
2026-04-20 00:01 -16.23356 -40.66334 37146 ft 494 kts 32°
2026-04-20 00:01 -16.20610 -40.64212 36640 ft 490 kts 32°
2026-04-20 00:01 -16.15224 -40.60057 35634 ft 481 kts 32°
2026-04-20 00:02 -16.12542 -40.57988 35119 ft 478 kts 32°
2026-04-20 00:02 -16.09878 -40.55936 34624 ft 475 kts 32°
2026-04-20 00:02 -16.07233 -40.53901 34117 ft 472 kts 32°
2026-04-20 00:02 -16.04603 -40.51877 33618 ft 468 kts 32°
2026-04-20 00:03 -16.01995 -40.49868 33111 ft 465 kts 32°
2026-04-20 00:03 -15.99405 -40.47874 32628 ft 462 kts 32°
2026-04-20 00:03 -15.96834 -40.45895 32211 ft 456 kts 32°
2026-04-20 00:03 -15.94321 -40.43962 31664 ft 445 kts 32°
2026-04-20 00:04 -15.91868 -40.42085 30923 ft 442 kts 32°
2026-04-20 00:04 -15.89399 -40.40200 30240 ft 438 kts 31°
2026-04-20 00:04 -15.86952 -40.38331 29735 ft 436 kts 32°
2026-04-20 00:04 -15.84513 -40.36470 29239 ft 433 kts 32°
2026-04-20 00:05 -15.82098 -40.34625 28733 ft 430 kts 32°
2026-04-20 00:05 -15.79697 -40.32791 28229 ft 426 kts 32°
2026-04-20 00:05 -15.77321 -40.30977 27720 ft 423 kts 32°
2026-04-20 00:05 -15.74960 -40.29175 27241 ft 419 kts 32°
2026-04-20 00:06 -15.72650 -40.27412 26735 ft 416 kts 33°
2026-04-20 00:06 -15.70329 -40.25642 26237 ft 413 kts 33°
2026-04-20 00:06 -15.68029 -40.23887 25757 ft 409 kts 33°
2026-04-20 00:06 -15.65747 -40.22147 25262 ft 405 kts 33°
2026-04-20 00:07 -15.63484 -40.20422 24777 ft 402 kts 33°
2026-04-20 00:07 -15.61242 -40.18714 24294 ft 398 kts 33°
2026-04-20 00:07 -15.59029 -40.17003 23809 ft 395 kts 37°
2026-04-20 00:07 -15.57057 -40.15048 23482 ft 389 kts 45°
2026-04-20 00:08 -15.55283 -40.13016 23243 ft 382 kts 46°
2026-04-20 00:08 -15.53528 -40.10980 22980 ft 377 kts 46°
2026-04-20 00:08 -15.51783 -40.08956 22553 ft 375 kts 46°
2026-04-20 00:08 -15.50050 -40.06953 22095 ft 372 kts 46°
2026-04-20 00:09 -15.48322 -40.04961 21643 ft 370 kts 46°
2026-04-20 00:09 -15.46601 -40.02986 21155 ft 368 kts 46°
2026-04-20 00:09 -15.44889 -40.01025 20685 ft 367 kts 46°
2026-04-20 00:09 -15.43179 -39.99070 20210 ft 365 kts 47°
2026-04-20 00:10 -15.41482 -39.97131 19734 ft 363 kts 47°
2026-04-20 00:10 -15.39810 -39.95221 19260 ft 361 kts 47°
2026-04-20 00:10 -15.38127 -39.93300 18785 ft 359 kts 47°
2026-04-20 00:10 -15.36455 -39.91391 18313 ft 357 kts 47°
2026-04-20 00:11 -15.34792 -39.89493 17831 ft 354 kts 47°
2026-04-20 00:11 -15.33142 -39.87611 17362 ft 352 kts 47°
2026-04-20 00:11 -15.31502 -39.85741 16890 ft 350 kts 47°
2026-04-20 00:11 -15.29870 -39.83881 16421 ft 347 kts 47°
2026-04-20 00:12 -15.28250 -39.82034 15950 ft 345 kts 47°
2026-04-20 00:12 -15.26641 -39.80200 15483 ft 343 kts 47°
2026-04-20 00:12 -15.25065 -39.78403 15021 ft 340 kts 47°
2026-04-20 00:12 -15.23479 -39.76595 14558 ft 338 kts 47°
2026-04-20 00:13 -15.21902 -39.74801 14087 ft 336 kts 47°
2026-04-20 00:13 -15.20332 -39.73017 13631 ft 334 kts 47°
2026-04-20 00:13 -15.18775 -39.71244 13169 ft 332 kts 48°
2026-04-20 00:13 -15.17227 -39.69482 12706 ft 330 kts 47°
2026-04-20 00:14 -15.15689 -39.67732 12247 ft 327 kts 48°
2026-04-20 00:14 -15.14163 -39.65995 11787 ft 325 kts 48°
2026-04-20 00:14 -15.12666 -39.64292 11335 ft 323 kts 48°
2026-04-20 00:14 -15.11159 -39.62578 10883 ft 320 kts 48°
2026-04-20 00:15 -15.09661 -39.60875 10441 ft 319 kts 48°
2026-04-20 00:15 -15.08178 -39.59190 10101 ft 313 kts 48°
2026-04-20 00:15 -15.06746 -39.57563 9972 ft 300 kts 48°
2026-04-20 00:15 -15.05348 -39.55975 9575 ft 298 kts 48°
2026-04-20 00:16 -15.03958 -39.54397 9202 ft 295 kts 48°
2026-04-20 00:16 -15.02580 -39.52832 8819 ft 293 kts 48°
2026-04-20 00:16 -15.01229 -39.51298 8440 ft 291 kts 48°
2026-04-20 00:16 -14.99871 -39.49756 8066 ft 289 kts 48°
2026-04-20 00:17 -14.98521 -39.48224 7682 ft 287 kts 48°
2026-04-20 00:17 -14.97182 -39.46704 7310 ft 285 kts 48°
2026-04-20 00:17 -14.95851 -39.45194 6937 ft 283 kts 48°
2026-04-20 00:17 -14.94529 -39.43695 6567 ft 281 kts 48°
2026-04-20 00:18 -14.93216 -39.42206 6194 ft 280 kts 48°
2026-04-20 00:18 -14.91910 -39.40725 5820 ft 275 kts 48°
2026-04-20 00:18 -14.90633 -39.39278 5586 ft 267 kts 48°
2026-04-20 00:18 -14.89425 -39.37906 5488 ft 257 kts 48°
2026-04-20 00:19 -14.88244 -39.36568 5381 ft 247 kts 48°
2026-04-20 00:19 -14.87113 -39.35286 5281 ft 236 kts 48°
2026-04-20 00:19 -14.86027 -39.34057 5194 ft 226 kts 48°
2026-04-20 00:19 -14.84989 -39.32884 5119 ft 216 kts 48°
2026-04-20 00:20 -14.83994 -39.31755 4915 ft 208 kts 49°
2026-04-20 00:20 -14.83035 -39.30671 4679 ft 200 kts 48°
2026-04-20 00:20 -14.82356 -39.29470 4469 ft 192 kts 81°
2026-04-20 00:20 -14.82304 -39.28137 4302 ft 182 kts 87°
2026-04-20 00:21 -14.82237 -39.26853 4082 ft 174 kts 88°
2026-04-20 00:21 -14.82177 -39.25649 3860 ft 166 kts 84°
2026-04-20 00:21 -14.82119 -39.24480 3679 ft 162 kts 90°
2026-04-20 00:21 -14.82106 -39.23320 3487 ft 162 kts 90°
2026-04-20 00:22 -14.82093 -39.22162 3301 ft 161 kts 89°
2026-04-20 00:22 -14.82064 -39.21009 3117 ft 160 kts 89°
2026-04-20 00:22 -14.82033 -39.19869 2921 ft 157 kts 89°
2026-04-20 00:22 -14.82006 -39.18754 2731 ft 152 kts 89°
2026-04-20 00:23 -14.81978 -39.17688 2549 ft 146 kts 89°
2026-04-20 00:23 -14.81949 -39.16652 2373 ft 147 kts 89°
2026-04-20 00:23 -14.81921 -39.15590 2197 ft 148 kts 89°
2026-04-20 00:23 -14.81894 -39.14547 2044 ft 139 kts 89°
2026-04-20 00:24 -14.81868 -39.13590 1832 ft 130 kts 89°
2026-04-20 00:24 -14.81844 -39.12661 1655 ft 128 kts 89°
2026-04-20 00:24 -14.81821 -39.11744 1475 ft 128 kts 89°
2026-04-20 00:24 -14.81796 -39.10822 1318 ft 129 kts 89°
2026-04-20 00:25 -14.81771 -39.09890 1145 ft 129 kts 89°
2026-04-20 00:25 -14.81752 -39.08971 972 ft 130 kts 90°
2026-04-20 00:25 -14.81727 -39.08037 792 ft 130 kts 89°
2026-04-20 00:25 -14.81692 -39.07115 619 ft 128 kts 90°
2026-04-20 00:26 -14.81673 -39.06205 457 ft 126 kts 89°
2026-04-20 00:26 -14.81646 -39.05287 246 ft 129 kts 89°
2026-04-20 00:26 -14.81616 -39.04369 87 ft 126 kts 88°
2026-04-20 00:26 -14.81594 -39.03493 21 ft 110 kts 88°
2026-04-20 00:27 -14.81583 -39.02990 17 ft 43 kts 88°
2026-04-20 00:27 -14.81578 -39.02806 17 ft 27 kts 89°
2026-04-20 00:27 -14.81601 -39.02642 21 ft 16 kts 115°
2026-04-20 00:27 -14.81573 -39.02629 19 ft 7 kts 271°
2026-04-20 00:28 -14.81575 -39.02707 18 ft 15 kts 269°
2026-04-20 00:28 -14.81579 -39.02831 17 ft 19 kts 268°
2026-04-20 00:28 -14.81582 -39.02965 17 ft 18 kts 269°
2026-04-20 00:28 -14.81582 -39.03051 17 ft 17 kts 283°
2026-04-20 00:29 -14.81491 -39.03093 18 ft 10 kts 317°
2026-04-20 00:29 -14.81482 -39.03141 18 ft 7 kts 269°
2026-04-20 00:29 -14.81480 -39.03189 18 ft 5 kts 290°
2026-04-20 00:29 -14.81464 -39.03195 18 ft 2 kts 353°
2026-04-20 00:30 -14.81448 -39.03201 19 ft 2 kts 324°
2026-04-20 00:30 -14.81443 -39.03208 19 ft 2 kts 308°
2026-04-20 00:30 -14.81442 -39.03210 19 ft 0 kts 308°